Location: Sternwarte auf dem Internationalen Platz Vogelsang IP
(50.5721°N, 6.4398°E)
Time: 11:34:57
(UTC+01:00)

ACS3 Solar Sail - Pass Details

Date: 14 November 2025
Orbit: 888 x 1003 km, 97.3° (Epoch: 07 December)

Event Time Altitude Azimuth Distance (km) Brightness Sun altitude
Rises 02:56:54 0° 20° (NNE) 3,551 5.3 -45.0°
Reaches altitude 10° 02:59:40 10° 31° (NNE) 2,621 4.5 -44.6°
Enters shadow 03:01:29 18° 45° (NE) 2,099 4.0 -44.4°
